[[{"header":{"parameterUnit":"m.s-1","parameterCategory":1,"la1":30.2991,"la2":30.254,"lo1":-89.0895,"lo2":-89.0444,"dy":0.0017,"dx":0.0017,"nx":28,"ny":28,"refTime":"2025-03-30T21:00:00:Z","depth":0,"parameterNumber":2,"parameterNumberName":"U-component_of_WINDS"},"data":[0,0,0,0,0,0,0,0,0,0,0,0,0,0,0,0,0,0,0,0,0,0,0,0,0,0,0,0,0,0,0,0,0,0,0,0,0,0,0,0,0,0,0,0,0,0,0,0,0,0,0,0,0,0,0,0,0,0,-1.0623,-1.0624,0,-1.073,-1.0731,-1.0733,-1.0804,-1.0804,-1.0805,-1.0805,-1.0917,-1.092,-1.0922,0,0,0,0,0,0,0,0,0,0,0,0,0,-1.0482,-1.0484,-1.0622,-1.0624,-1.0625,-1.073,-1.0731,-1.0733,-1.0804,-1.0804,-1.0805,-1.0805,-1.0916,-1.0919,-1.0922,0,0,0,0,0,0,0,0,0,0,0,0,0,-1.0561,-1.0485,-1.0622,-1.0673,-1.0679,-1.073,-1.0731,-1.0733,-1.0804,-1.0804,-1.0805,-1.0806,-1.0915,-1.0919,-1.0923,-1.0932,0,0,-1.0934,-1.0936,0,0,0,0,0,0,0,0,-1.0557,-1.0567,-1.0664,-1.067,-1.0676,-1.0754,-1.0723,-1.08,-1.0803,-1.0756,-1.0805,-1.0806,-1.0862,-1.0871,-1.0889,-1.0938,-1.0942,-1.0935,-1.0937,-1.0939,-1.094,0,0,0,0,0,0,0,-1.0551,-1.0562,-1.0665,-1.0666,-1.0673,-1.0692,-1.0704,-1.0738,-1.0804,-1.076,-1.0766,-1.0777,-1.0866,-1.0886,-1.0893,-1.0944,-1.0935,-1.0938,-1.094,-1.0942,-1.1008,-1.1007,0,0,0,0,0,0,-1.0537,-1.0557,-1.0662,-1.0668,-1.0617,-1.0694,-1.0707,-1.0728,-1.0804,-1.0816,-1.0777,-1.078,-1.0879,-1.0888,-1.0897,-1.0914,-1.0939,-1.0942,-1.0945,-1.1008,-1.1007,-1.1007,0,0,0,0,0,0,-1.0534,-1.0546,-1.0657,-1.0614,-1.063,-1.0695,-1.0719,-1.073,-1.075,-1.0816,-1.0829,-1.0784,-1.088,-1.0891,-1.0923,-1.0918,-1.0944,-1.0948,-1.1009,-1.1008,-1.1007,-1.0946,0,0,0,0,0,0,-1.053,-1.0544,-1.0547,-1.0614,-1.0632,-1.0681,-1.0718,-1.0732,-1.0756,-1.0762,-1.0827,-1.0838,-1.0881,-1.0917,-1.0927,-1.0924,-1.0951,-1.1009,-1.1008,-1.1007,-1.0949,-1.0944,-1.0939,0,0,0,0,0,-1.0524,-1.0526,-1.0547,-1.0559,-1.0637,-1.068,-1.0691,-1.0739,-1.0755,-1.076,-1.0803,-1.0836,-1.0918,-1.092,-1.0932,-1.093,-1.101,-1.1009,-1.1008,-1.0951,-1.0945,-1.0939,0,0,0,0,0,0,-1.0458,-1.0536,-1.056,-1.0583,-1.0624,-1.0692,-1.0699,-1.073,-1.0768,-1.0772,-1.0832,-1.0846,-1.0872,-1.0905,-1.0906,-1.0944,-1.0968,-1.0969,-1.0921,-1.0915,-1.091,-1.0902,-1.0954,0,0,0,0,0,-1.0446,-1.0473,-1.054,-1.0554,-1.0574,-1.0633,-1.0653,-1.0687,-1.0733,-1.0751,-1.0796,-1.084,-1.0876,-1.0898,-1.0934,-1.0955,-1.0971,-1.096,-1.0955,-1.095,-1.095,-1.0965,-1.0961,-1.1003,-1.1003,-1.1003,0,0,-1.0421,-1.0467,-1.0481,-1.0542,-1.0578,-1.0606,-1.0647,-1.0675,-1.0696,-1.0755,-1.0788,-1.0823,-1.0876,-1.0902,-1.0916,-1.093,-1.0942,-1.0949,-1.0944,-1.0947,-1.0963,-1.0959,-1.0955,-1.1002,-1.1002,-1.1002,0,0,-1.0391,-1.0428,-1.0444,-1.048,-1.0534,-1.0573,-1.0577,-1.0641,-1.0666,-1.07,-1.0745,-1.0773,-1.0832,-1.0869,-1.0895,-1.088,-1.0913,-1.0891,-1.0863,-1.0877,-1.0874,-1.0871,-1.0866,-1.0864,-1.0891,-1.0891,-1.089,0,-1.0353,-1.0396,-1.0449,-1.0474,-1.05,-1.0555,-1.0573,-1.0605,-1.0668,-1.0686,-1.07,-1.0778,-1.0817,-1.0853,-1.085,-1.0869,-1.0877,-1.0883,-1.087,-1.0868,-1.0866,-1.0862,-1.086,-1.0888,-1.0888,-1.0888,-1.0888,0,-1.0348,-1.0377,-1.0384,-1.0443,-1.0471,-1.0492,-1.0549,-1.0571,-1.0603,-1.0641,-1.0676,-1.0726,-1.0774,-1.0785,-1.0817,-1.0827,-1.0834,-1.0858,-1.0884,-1.0858,-1.0855,-1.0854,-1.0883,-1.0884,-1.0885,-1.0886,0,0,-1.0276,-1.0365,-1.0367,-1.0395,-1.046,-1.0484,-1.0509,-1.0556,-1.0573,-1.0616,-1.0639,-1.069,-1.0713,-1.0743,-1.078,-1.0792,-1.0778,-1.0816,-1.0818,-1.0807,-1.0793,-1.0773,-1.077,-1.0801,-1.0801,-1.0801,-1.0788,0,-1.0255,-1.03,-1.0349,-1.0378,-1.0407,-1.0461,-1.0483,-1.0526,-1.0563,-1.0594,-1.0636,-1.067,-1.0699,-1.0717,-1.0732,-1.0776,-1.0776,-1.0779,-1.0823,-1.0824,-1.0807,-1.0768,-1.0747,-1.0732,-1.0787,-1.0787,-1.0787,0,-1.0235,-1.0275,-1.0306,-1.037,-1.0384,-1.0402,-1.0449,-1.0478,-1.0529,-1.0555,-1.0589,-1.0629,-1.066,-1.0683,-1.0726,-1.0727,-1.0749,-1.0774,-1.0774,-1.0779,-1.0803,-1.0772,-1.0729,-1.0726,-1.0786,-1.0786,-1.0786,0,-1.0179,-1.024,-1.0268,-1.029,-1.0365,-1.0377,-1.0409,-1.046,-1.0486,-1.0528,-1.0545,-1.0591,-1.0616,-1.0651,-1.0702,-1.0714,-1.0741,-1.0768,-1.0764,-1.0763,-1.0766,-1.0765,-1.0725,-1.0781,-1.0781,-1.0781,-1.0781,0,-1.0149,-1.0166,-1.0243,-1.026,-1.0281,-1.0339,-1.0359,-1.0396,-1.0442,-1.0468,-1.0518,-1.0542,-1.0609,-1.0641,-1.0682,-1.0713,-1.0724,-1.0747,-1.0757,-1.0741,-1.0738,-1.0755,-1.0757,-1.0781,-1.0781,-1.0781,-1.0781,0,-1.0089,-1.0141,-1.0174,-1.0243,-1.0261,-1.0274,-1.0333,-1.0352,-1.0393,-1.0425,-1.0437,-1.0501,-1.0542,-1.0597,-1.0655,-1.0683,-1.0708,-1.0725,-1.069,-1.0696,-1.0689,-1.0688,-1.0658,-1.0657,-1.0714,-1.0713,-1.0713,0,-1.0065,-1.008,-1.015,-1.0171,-1.0201,-1.0233,-1.026,-1.0318,-1.0344,-1.0404,-1.0416,-1.046,-1.0498,-1.0561,-1.0614,-1.0659,-1.0678,-1.0664,-1.0684,-1.0669,-1.0677,-1.0675,-1.0677,-1.0658,-1.0657,-1.0656,-1.0656,0,-1.0018,-1.0044,-1.0079,-1.0124,-1.0154,-1.0193,-1.0234,-1.0248,-1.0315,-1.0342,-1.0384,-1.0413,-1.0473,-1.0517,-1.0569,-1.0604,-1.0641,-1.0649,-1.0651,-1.0634,-1.0613,-1.0624,-1.0675,-1.0649,-1.065,-1.065,-1.0651,-1.0651,-0.9976,-0.9991,-1.0043,-1.0082,-1.0119,-1.0156,-1.0178,-1.0222,-1.0257,-1.0309,-1.0343,-1.0383,-1.0436,-1.051,-1.0544,-1.0578,-1.0592,-1.0594,-1.0595,-1.0594,-1.0589,-1.0609,-1.0588,-1.0588,-1.0588,-1.0588,-1.0589,0,-0.9931,-0.9968,-1.0002,-1.0058,-1.0088,-1.0121,-1.0169,-1.0192,-1.0227,-1.0273,-1.031,-1.0359,-1.0402,-1.0459,-1.0507,-1.0523,-1.0542,-1.0534,-1.0533,-1.054,-1.0573,-1.0566,-1.0518,-1.0518,-1.0518,-1.0518,-1.0518,-1.0518,-0.9911,-0.9939,-0.9971,-1.002,-1.0057,-1.0096,-1.012,-1.0156,-1.0193,-1.0245,-1.0281,-1.0318,-1.0369,-1.0422,-1.0464,-1.048,-1.0495,-1.0481,-1.0502,-1.0531,-1.0538,-1.0544,-1.0538,-1.0484,-1.0484,-1.0467,-1.0467,-1.0467]},{"header":{"parameterUnit":"m.s-1","parameterCategory":1,"la1":30.2991,"la2":30.254,"lo1":-89.0895,"lo2":-89.0444,"dy":0.0017,"dx":0.0017,"nx":28,"ny":28,"refTime":"2025-03-30T21:00:00:Z","depth":0,"parameterNumber":3,"parameterNumberName":"V-component_of_WINDS"},"data":[0,0,0,0,0,0,0,0,0,0,0,0,0,0,0,0,0,0,0,0,0,0,0,0,0,0,0,0,0,0,0,0,0,0,0,0,0,0,0,0,0,0,0,0,0,0,0,0,0,0,0,0,0,0,0,0,0,0,4.4077,4.4077,0,4.4156,4.4156,4.4157,4.417,4.4169,4.4168,4.4168,4.4245,4.4248,4.4251,0,0,0,0,0,0,0,0,0,0,0,0,0,4.3934,4.3936,4.4077,4.4078,4.4079,4.4155,4.4156,4.4158,4.417,4.4169,4.4168,4.4167,4.4244,4.4248,4.4251,0,0,0,0,0,0,0,0,0,0,0,0,0,4.4002,4.3937,4.4076,4.4094,4.4096,4.4155,4.4156,4.4158,4.417,4.4169,4.4168,4.4167,4.4243,4.4247,4.4251,4.4297,0,0,4.4264,4.4265,0,0,0,0,0,0,0,0,4.3998,4.4007,4.409,4.4093,4.4096,4.4152,4.4134,4.4204,4.417,4.4142,4.4168,4.4167,4.4215,4.4221,4.4238,4.4301,4.4304,4.4264,4.4267,4.4268,4.4269,0,0,0,0,0,0,0,4.3994,4.4004,4.4108,4.4092,4.4095,4.4097,4.4106,4.4148,4.4183,4.4144,4.4146,4.4155,4.4216,4.4234,4.424,4.4305,4.4264,4.4268,4.427,4.4272,4.4409,4.441,0,0,0,0,0,0,4.3986,4.4,4.4105,4.411,4.4044,4.41,4.411,4.4135,4.4183,4.4189,4.4156,4.4155,4.4228,4.4235,4.4243,4.43,4.4268,4.4272,4.4274,4.4408,4.441,4.4411,0,0,0,0,0,0,4.3983,4.3995,4.4102,4.4055,4.4069,4.4104,4.4132,4.4137,4.4155,4.4191,4.4197,4.4168,4.4227,4.4237,4.4284,4.4303,4.4274,4.4278,4.4407,4.4408,4.441,4.4415,0,0,0,0,0,0,4.3979,4.3994,4.4013,4.4056,4.4072,4.4143,4.4133,4.4139,4.4163,4.4163,4.4204,4.421,4.4227,4.4278,4.4288,4.4308,4.4281,4.4405,4.4407,4.441,4.4413,4.4417,4.442,0,0,0,0,0,4.3974,4.401,4.4014,4.4026,4.4096,4.4144,4.4153,4.4172,4.4164,4.4183,4.4206,4.4209,4.4299,4.4282,4.4294,4.4316,4.4404,4.4407,4.4409,4.4412,4.4416,4.4419,0,0,0,0,0,0,4.3967,4.4016,4.402,4.4072,4.4104,4.4146,4.417,4.4176,4.421,4.4209,4.423,4.424,4.4285,4.4305,4.4285,4.4362,4.4351,4.4356,4.4348,4.4353,4.4356,4.4351,4.4284,0,0,0,0,0,4.3972,4.4008,4.4048,4.409,4.4105,4.4135,4.4156,4.4169,4.4202,4.4215,4.4242,4.4273,4.4309,4.4331,4.4366,4.4415,4.4425,4.4436,4.4439,4.4442,4.4446,4.4474,4.448,4.442,4.442,4.442,0,0,4.3982,4.4013,4.4034,4.4089,4.4115,4.4151,4.4146,4.4184,4.4211,4.4221,4.4267,4.4288,4.4324,4.4372,4.4395,4.439,4.4465,4.4445,4.4447,4.445,4.4478,4.4483,4.4488,4.4422,4.4421,4.4421,0,0,4.4019,4.4046,4.4084,4.411,4.415,4.4169,4.4178,4.4219,4.4234,4.4281,4.4289,4.432,4.4381,4.4407,4.4427,4.4474,4.4478,4.4484,4.4501,4.4528,4.4533,4.4537,4.4555,4.4561,4.4488,4.4488,4.4488,0,4.4026,4.4082,4.4102,4.4141,4.4165,4.4176,4.4214,4.4238,4.4287,4.4303,4.4296,4.4373,4.4398,4.4453,4.4464,4.4481,4.4491,4.448,4.4531,4.4535,4.454,4.4557,4.4563,4.4489,4.4489,4.4489,4.4488,0,4.4089,4.4127,4.4153,4.4201,4.4228,4.4266,4.4291,4.4315,4.4325,4.4344,4.4392,4.4422,4.4464,4.4477,4.4486,4.4534,4.4529,4.4527,4.4516,4.4546,4.4562,4.4568,4.4489,4.4489,4.4489,4.4489,0,0,4.4126,4.4184,4.4194,4.4216,4.426,4.429,4.4327,4.4369,4.4389,4.4422,4.4454,4.4505,4.4503,4.4527,4.4539,4.4563,4.4598,4.4557,4.4558,4.4565,4.4653,4.4655,4.4663,4.4601,4.4602,4.4603,4.465,0,4.4169,4.4239,4.4258,4.4317,4.4352,4.4363,4.4396,4.4426,4.4445,4.4477,4.4498,4.4534,4.4528,4.4543,4.4566,4.4589,4.4616,4.4586,4.4631,4.4633,4.4624,4.4671,4.4674,4.4717,4.4656,4.4657,4.4658,0,4.4229,4.4264,4.4327,4.4367,4.4382,4.4412,4.4452,4.4482,4.4516,4.4528,4.4555,4.4565,4.4604,4.459,4.4644,4.4623,4.4643,4.4656,4.4658,4.4664,4.4648,4.4679,4.4731,4.4738,4.4668,4.4667,4.4667,0,4.4251,4.4313,4.4359,4.4377,4.4425,4.4446,4.4466,4.4499,4.4523,4.4557,4.4572,4.4609,4.463,4.4659,4.4678,4.4666,4.4731,4.4718,4.4742,4.4742,4.4757,4.4756,4.4813,4.4767,4.4767,4.4767,4.4767,0,4.4298,4.4336,4.437,4.4398,4.4441,4.4462,4.4503,4.4524,4.4553,4.4585,4.4595,4.4625,4.4648,4.4681,4.4696,4.4739,4.4748,4.4759,4.4763,4.4759,4.4758,4.4773,4.4771,4.4769,4.4768,4.4768,4.4768,0,4.4331,4.4355,4.4405,4.4446,4.4457,4.4487,4.4521,4.4549,4.4567,4.4608,4.4618,4.4648,4.4687,4.4709,4.4757,4.4767,4.4815,4.4817,4.4805,4.4807,4.483,4.4828,4.49,4.4911,4.4856,4.4857,4.4857,0,4.436,4.439,4.4434,4.4456,4.4477,4.4513,4.4538,4.4559,4.4583,4.4624,4.4647,4.4686,4.4719,4.478,4.4806,4.4843,4.4846,4.4869,4.4852,4.4847,4.4848,4.4847,4.485,4.4872,4.4873,4.4873,4.4874,0,4.441,4.442,4.4455,4.4495,4.4524,4.4555,4.4587,4.4604,4.463,4.4657,4.4698,4.4723,4.4773,4.4812,4.4851,4.4871,4.4877,4.4878,4.4886,4.4883,4.4875,4.4881,4.4814,4.4877,4.4877,4.4876,4.4876,4.4876,4.4443,4.447,4.4505,4.4544,4.457,4.4599,4.4627,4.4649,4.4683,4.4726,4.4736,4.4779,4.4811,4.4865,4.4886,4.4919,4.4915,4.4925,4.4928,4.4931,4.4933,4.4869,4.4926,4.4925,4.4925,4.4925,4.4925,0,4.4495,4.4518,4.4553,4.4597,4.4627,4.463,4.4664,4.4689,4.4727,4.4757,4.479,4.4836,4.4874,4.4902,4.494,4.4961,4.4965,4.4971,4.497,4.4975,4.4934,4.4924,4.4968,4.4968,4.4968,4.4968,4.4968,4.4967,4.4525,4.4571,4.4586,4.4644,4.4667,4.4709,4.4729,4.4756,4.478,4.4832,4.4863,4.4881,4.4911,4.4952,4.4986,4.4994,4.5008,4.5014,4.5021,4.4982,4.4978,4.4974,4.4965,4.5016,4.5016,4.506,4.5061,4.5061]}]]